Weather History for KCKP - October, 2012

Change the Weather History Date:

Monday, October 22, 2012

  Actual Average (WUND) Record (WUND)
Temperature  
Mean Temperature 56 °F -  
Max Temperature 63 °F - - (-1)
Min Temperature 51 °F - - (-1)
Degree Days  
Heating Degree Days 8    
Growing Degree Days 6 (Base 50)    
Moisture  
Dew Point 51 °F    
Average Humidity 80    
Maximum Humidity 93    
Minimum Humidity 69    
Precipitation  
Precipitation 0.00 in - - ()
Sea Level Pressure  
Sea Level Pressure 29.82 in    
Wind  
Wind Speed 9 mph (NNE)    
Max Wind Speed 14 mph    
Max Gust Speed 18 mph    
Visibility 8 miles    
Events Rain , Thunderstorm    
Averages and records for this station are not official NWS values.
T = Trace of Precipitation, MM = Missing Value Source: NWS Daily Summary

Daily Weather History Graph

Daily Weather History Graph

Search for Another Location

Airport or City:

Trip Planner

Search our weather history database for the weather conditions in past years. The results will help you decide how hot, cold, wet, or windy it might be!

Date:

Astronomy

Oct. 22, 2012 Rise Set
Actual Time 7:44 AM CDT 6:28 PM CDT
Civil Twilight 7:15 AM CDT 6:56 PM CDT
Nautical Twilight 6:42 AM CDT 7:29 PM CDT
Astronomical Twilight 6:09 AM CDT 8:02 PM CDT
Moon 2:45 PM CDT (10/22) 12:23 AM CDT (10/22)
Length of Visible Light 11h 41m
Length of Day
10h 43m
First Quarter, 56% of the Moon is Illuminated
Oct 22
First Quarter
Oct 29
Full
Nov 6
Last Quarter
Nov 13
New
Nov 20
First Quarter

Hourly Weather History & Observations

Time (CDT) Temp. Dew Point Humidity Pressure Visibility Wind Dir Wind Speed Gust Speed Precip Events Conditions
12:15 AM 51.8 °F 47.3 °F 85% 29.87 in 10.0 mi NNE 9.2 mph - N/A   Overcast
12:55 AM 52.3 °F 47.3 °F 83% 29.86 in 10.0 mi NNE 11.5 mph 18.4 mph N/A   Overcast
1:35 AM 52.7 °F 47.3 °F 82% 29.85 in 10.0 mi NE 10.4 mph - N/A   Overcast
1:55 AM 52.7 °F 47.3 °F 82% 29.84 in 5.0 mi NE 10.4 mph - N/A   Haze
2:15 AM 52.7 °F 47.3 °F 82% 29.83 in 10.0 mi NE 9.2 mph - N/A   Overcast
2:35 AM 52.3 °F 47.3 °F 83% 29.83 in 7.0 mi NNE 9.2 mph - N/A   Mostly Cloudy
2:55 AM 52.7 °F 47.3 °F 82% 29.84 in 5.0 mi NNE 6.9 mph - N/A Thunderstorm Haze
3:15 AM 53.1 °F 47.5 °F 81% 29.83 in 10.0 mi NNE 10.4 mph - N/A   Overcast
3:55 AM 52.9 °F 47.5 °F 82% 29.84 in 7.0 mi NE 8.1 mph - N/A   Overcast
4:15 AM 52.5 °F 47.3 °F 82% 29.83 in 10.0 mi NNE 11.5 mph - N/A   Overcast
4:35 AM 52.3 °F 47.3 °F 83% 29.83 in 10.0 mi NNE 11.5 mph - N/A   Overcast
4:55 AM 52.5 °F 47.3 °F 82% 29.82 in 10.0 mi NNE 12.7 mph - N/A   Overcast
5:15 AM 52.7 °F 47.5 °F 82% 29.83 in 10.0 mi NE 9.2 mph - N/A   Overcast
5:35 AM 52.9 °F 47.3 °F 81% 29.83 in 10.0 mi NNE 9.2 mph 16.1 mph N/A   Overcast
5:55 AM 52.9 °F 47.3 °F 81% 29.83 in 10.0 mi NNE 8.1 mph - N/A   Overcast
6:15 AM 52.7 °F 47.3 °F 82% 29.83 in 7.0 mi NNE 10.4 mph 16.1 mph N/A   Overcast
6:35 AM 52.9 °F 47.3 °F 81% 29.84 in 10.0 mi NNE 10.4 mph - N/A   Overcast
6:55 AM 53.2 °F 47.5 °F 81% 29.85 in 10.0 mi NNE 8.1 mph - N/A   Overcast
7:15 AM 53.2 °F 47.3 °F 80% 29.85 in 10.0 mi NNE 13.8 mph - N/A   Overcast
7:35 AM 53.2 °F 47.5 °F 81% 29.85 in 10.0 mi NNE 6.9 mph - N/A   Overcast
7:55 AM 53.1 °F 47.3 °F 81% 29.85 in 10.0 mi NNE 11.5 mph - N/A   Overcast
8:15 AM 53.1 °F 47.3 °F 81% 29.86 in 10.0 mi North 8.1 mph - N/A   Overcast
8:35 AM 52.9 °F 47.3 °F 81% 29.86 in 10.0 mi North 6.9 mph - N/A   Overcast
8:55 AM 52.5 °F 47.1 °F 82% 29.86 in 10.0 mi NNE 8.1 mph - N/A   Overcast
9:15 AM 52.9 °F 47.3 °F 81% 29.86 in 10.0 mi NNE 8.1 mph - N/A   Overcast
9:35 AM 53.1 °F 47.3 °F 81% 29.87 in 10.0 mi NNE 8.1 mph - N/A   Overcast
9:55 AM 53.2 °F 47.3 °F 80% 29.88 in 10.0 mi NNE 5.8 mph - N/A   Overcast
10:15 AM 53.6 °F 47.3 °F 79% 29.88 in 7.0 mi NNE 5.8 mph - N/A   Overcast
10:35 AM 53.2 °F 47.5 °F 81% 29.87 in 10.0 mi North 5.8 mph - N/A Rain Light Rain
10:55 AM 54.1 °F 48.4 °F 81% 29.87 in 10.0 mi North 6.9 mph - N/A   Overcast
11:15 AM 54.5 °F 48.2 °F 79% 29.87 in 10.0 mi NNE 5.8 mph - N/A   Overcast
11:35 AM 55.0 °F 48.2 °F 78% 29.87 in 10.0 mi North 6.9 mph - N/A   Overcast
11:55 AM 55.4 °F 48.2 °F 77% 29.86 in 10.0 mi NNE 6.9 mph - N/A   Overcast
12:15 PM 55.8 °F 48.9 °F 78% 29.86 in 7.0 mi NE 8.1 mph - N/A   Overcast
12:35 PM 56.8 °F 49.1 °F 75% 29.86 in 7.0 mi NE 6.9 mph - N/A   Overcast
12:55 PM 57.2 °F 49.1 °F 74% 29.85 in 10.0 mi NE 5.8 mph - N/A   Overcast
1:15 PM 57.9 °F 49.3 °F 73% 29.84 in 10.0 mi NNE 5.8 mph - N/A   Overcast
1:35 PM 58.5 °F 49.6 °F 72% 29.83 in 10.0 mi NNE 6.9 mph - N/A   Overcast
1:55 PM 59.0 °F 50.4 °F 73% 29.83 in 10.0 mi NNE 6.9 mph - N/A   Overcast
2:15 PM 59.4 °F 50.7 °F 73% 29.82 in 10.0 mi NNE 10.4 mph - N/A   Overcast
2:35 PM 60.4 °F 50.9 °F 71% 29.82 in 10.0 mi NNE 10.4 mph - N/A   Overcast
2:55 PM 61.9 °F 51.4 °F 69% 29.81 in 10.0 mi NNE 6.9 mph - N/A   Overcast
3:15 PM 62.8 °F 52.3 °F 69% 29.81 in 7.0 mi NE 9.2 mph - N/A   Overcast
3:35 PM 62.8 °F 52.7 °F 70% 29.82 in 7.0 mi NNE 9.2 mph - N/A   Overcast
3:55 PM 62.6 °F 53.1 °F 71% 29.82 in 2.5 mi NE 8.1 mph - N/A   Haze
4:15 PM 62.1 °F 52.7 °F 71% 29.81 in 4.0 mi ENE 6.9 mph - N/A   Haze
4:35 PM 62.1 °F 52.9 °F 72% 29.81 in 5.0 mi NE 8.1 mph - N/A   Haze
5:15 PM 62.1 °F 53.2 °F 73% 29.81 in 2.5 mi NE 5.8 mph - N/A   Haze
5:35 PM 62.2 °F 53.1 °F 72% 29.81 in 7.0 mi NE 5.8 mph - N/A   Mostly Cloudy
5:55 PM 61.9 °F 52.9 °F 72% 29.80 in 10.0 mi NNE 8.1 mph - N/A   Mostly Cloudy
6:15 PM 61.7 °F 53.2 °F 74% 29.81 in 7.0 mi NNE 5.8 mph - N/A   Overcast
6:35 PM 61.7 °F 53.6 °F 75% 29.80 in 10.0 mi NNE 6.9 mph - N/A Rain Light Rain
6:55 PM 61.0 °F 54.0 °F 78% 29.80 in 10.0 mi NE 5.8 mph - N/A   Overcast
7:15 PM 61.2 °F 54.0 °F 77% 29.80 in 10.0 mi NE 5.8 mph - N/A   Overcast
7:35 PM 61.0 °F 54.5 °F 79% 29.79 in 10.0 mi NNE 5.8 mph - N/A   Overcast
7:55 PM 60.4 °F 54.5 °F 81% 29.79 in 10.0 mi NNE 5.8 mph - N/A   Mostly Cloudy
8:15 PM 60.1 °F 54.7 °F 82% 29.78 in 10.0 mi NNE 8.1 mph - N/A   Mostly Cloudy
8:35 PM 59.9 °F 54.7 °F 83% 29.79 in 10.0 mi NNE 5.8 mph - N/A   Mostly Cloudy
8:55 PM 59.9 °F 54.9 °F 83% 29.78 in 10.0 mi NNE 5.8 mph - N/A   Mostly Cloudy
9:15 PM 59.7 °F 54.9 °F 84% 29.78 in 10.0 mi NNE 4.6 mph - N/A   Scattered Clouds
9:35 PM 59.2 °F 55.0 °F 86% 29.77 in 10.0 mi NNE 5.8 mph - N/A   Mostly Cloudy
9:55 PM 59.9 °F 55.9 °F 87% 29.77 in 7.0 mi ENE 4.6 mph - N/A   Mostly Cloudy
10:15 PM 59.5 °F 56.1 °F 88% 29.76 in 5.0 mi ENE 8.1 mph - N/A   Mostly Cloudy
10:35 PM 59.9 °F 57.4 °F 91% 29.75 in 1.8 mi East 5.8 mph - N/A   Mostly Cloudy
10:55 PM 60.8 °F 58.3 °F 91% 29.74 in 3.0 mi East 10.4 mph - N/A   Overcast
11:15 PM 61.2 °F 59.0 °F 93% 29.74 in 4.0 mi ENE 6.9 mph - N/A   Overcast
11:35 PM 61.7 °F 59.5 °F 93% 29.74 in 3.0 mi ENE 5.8 mph - N/A   Overcast
11:55 PM 62.1 °F 60.1 °F 93% 29.74 in 1.5 mi Calm Calm - N/A   Overcast